Temp
-15 -15 -18 -21 -22 -22 -22 -22 -22 -21 -21 -20 -21 -20 -20 -20 -20 -19 -19 -19 -19 -18 -18 -17 -17 -17 -17 -17 -16 -16 -16 -15 -15 -15 -15 -15 -15 -16 -16 -16 -15 -15 -15 -15
-14 -15 -17 -21 -22 -22 -22 -22 -22 -21 -21 -21 -21 -21 -20 -20 -20 -20 -20 -19 -19 -18 -18 -18 -18 -17 -17 -16 -16 -16 -16 -16 -15 -15 -15 -16 -16 -16 -16 -16 -16 -15 -15 -15
-15 -16 -17 -21 -21 -22 -22 -22 -21 -21 -21 -22 -21 -21 -20 -21 -20 -20 -20 -20 -20 -19 -19 -19 -19 -19 -18 -18 -18 -17 -17 -17 -16 -17 -17 -17 -17 -17 -17 -16 -16 -16 -16 -16
-15 -16 -18 -19 -21 -22 -22 -22 -22 -22 -22 -21 -21 -21 -21 -20 -20 -20 -20 -20 -20 -20 -20 -20 -20 -20 -19 -19 -18 -18 -18 -18 -18 -18 -17 -17 -17 -17 -17 -17 -17 -17 -18 -18
-15 -16 -17 -18 -20 -22 -22 -22 -22 -22 -22 -21 -21 -21 -21 -21 -21 -20 -20 -20 -19 -19 -20 -20 -20 -20 -20 -20 -19 -19 -18 -18 -18 -18 -18 -18 -18 -18 -18 -18 -18 -18 -18 -18
-16 -16 -17 -17 -20 -20 -22 -23 -23 -22 -22 -21 -21 -21 -21 -21 -21 -21 -21 -20 -20 -20 -20 -20 -20 -20 -20 -20 -19 -19 -18 -18 -17 -18 -19 -19 -19 -18 -18 -18 -18 -18 -18 -18
-16 -16 -17 -17 -19 -21 -22 -22 -24 -23 -23 -22 -22 -22 -22 -22 -21 -21 -21 -21 -20 -20 -20 -20 -20 -20 -20 -20 -20 -19 -19 -18 -18 -19 -19 -19 -19 -19 -19 -19 -19 -19 -18 -18
-16 -17 -17 -17 -18 -21 -22 -24 -24 -23 -23 -23 -23 -22 -22 -22 -22 -21 -21 -21 -21 -20 -20 -20 -20 -20 -20 -20 -19 -19 -19 -19 -20 -20 -20 -19 -19 -19 -19 -19 -19 -19 -19 -19
-16 -17 -17 -17 -19 -20 -22 -23 -23 -23 -23 -23 -23 -23 -23 -22 -22 -22 -21 -21 -21 -21 -21 -21 -20 -20 -20 -20 -20 -20 -20 -20 -20 -20 -20 -20 -20 -20 -20 -19 -19 -19 -19 -19
-16 -17 -17 -17 -18 -19 -20 -21 -23 -23 -23 -23 -23 -23 -23 -23 -23 -22 -22 -21 -21 -21 -21 -21 -20 -20 -20 -20 -20 -20 -20 -20 -20 -20 -20 -20 -20 -20 -20 -20 -20 -20 -20 -20
-17 -17 -17 -18 -18 -17 -17 -18 -20 -22 -22 -23 -23 -23 -23 -23 -23 -23 -22 -22 -22 -22 -21 -21 -21 -21 -21 -20 -20 -20 -20 -20 -21 -21 -20 -20 -20 -20 -20 -20 -20 -20 -20 -20
-17 -17 -17 -18 -18 -18 -18 -18 -17 -19 -20 -22 -23 -23 -24 -23 -23 -23 -23 -23 -22 -22 -22 -21 -21 -21 -21 -21 -21 -21 -21 -21 -21 -21 -21 -21 -21 -20 -20 -20 -21 -21 -21 -21
-16 -17 -17 -18 -18 -18 -18 -18 -18 -17 -18 -20 -22 -23 -24 -24 -23 -23 -23 -23 -22 -22 -22 -22 -22 -22 -22 -21 -21 -21 -21 -21 -21 -21 -21 -21 -21 -21 -21 -21 -21 -21 -21 -21
-16 -17 -17 -18 -18 -18 -19 -19 -19 -18 -18 -19 -21 -23 -24 -24 -23 -23 -23 -23 -23 -22 -23 -23 -22 -22 -22 -22 -22 -22 -21 -21 -22 -21 -21 -21 -21 -21 -21 -21 -21 -21 -21 -21
-17 -17 -18 -18 -18 -18 -19 -19 -19 -19 -19 -19 -21 -23 -24 -24 -24 -23 -23 -23 -23 -23 -23 -23 -23 -23 -23 -23 -22 -22 -22 -22 -22 -22 -22 -22 -22 -22 -22 -22 -22 -22 -22 -22
-17 -17 -18 -18 -19 -19 -19 -19 -19 -19 -20 -21 -22 -24 -24 -24 -24 -24 -23 -23 -23 -23 -23 -23 -23 -23 -23 -22 -22 -22 -22 -22 -22 -22 -22 -22 -22 -22 -22 -22 -22 -22 -22 -22
-16 -17 -18 -18 -19 -19 -20 -20 -20 -21 -22 -23 -24 -24 -24 -24 -24 -24 -24 -23 -23 -23 -23 -23 -23 -23 -23 -23 -22 -22 -22 -22 -22 -22 -22 -22 -22 -22 -22 -22 -22 -22 -22 -22
-16 -17 -18 -18 -19 -20 -20 -20 -20 -21 -22 -23 -24 -24 -24 -24 -24 -23 -24 -23 -23 -24 -24 -24 -24 -23 -23 -23 -23 -23 -23 -23 -23 -23 -23 -22 -22 -22 -22 -22 -22 -22 -22 -22
-16 -16 -17 -18 -19 -20 -21 -21 -21 -21 -21 -21 -22 -23 -24 -24 -24 -24 -24 -24 -24 -24 -24 -24 -24 -24 -24 -24 -24 -24 -24 -23 -23 -23 -23 -23 -23 -23 -23 -23 -23 -23 -23 -23
-16 -16 -17 -18 -19 -20 -21 -21 -21 -21 -21 -21 -22 -22 -23 -23 -23 -24 -24 -24 -24 -24 -24 -24 -24 -24 -24 -24 -24 -24 -24 -23 -23 -23 -23 -23 -23 -23 -23 -23 -23 -23 -23 -23
-16 -16 -17 -18 -19 -21 -21 -22 -22 -22 -22 -22 -22 -22 -22 -22 -23 -23 -24 -24 -25 -25 -24 -24 -24 -24 -24 -24 -24 -24 -24 -23 -23 -23 -23 -24 -24 -24 -24 -24 -24 -24 -24 -24
-16 -16 -17 -19 -20 -21 -21 -22 -22 -22 -22 -22 -22 -22 -23 -23 -23 -24 -24 -25 -25 -25 -25 -25 -25 -25 -24 -24 -24 -24 -24 -24 -24 -24 -24 -24 -24 -24 -24 -24 -24 -24 -24 -24
-16 -16 -17 -18 -19 -20 -22 -22 -23 -23 -23 -23 -23 -23 -23 -23 -23 -24 -25 -26 -26 -26 -25 -25 -25 -25 -25 -24 -24 -24 -24 -25 -25 -25 -25 -25 -25 -25 -25 -25 -25 -25 -25 -25
-16 -17 -17 -18 -20 -20 -22 -22 -23 -23 -23 -23 -23 -24 -24 -24 -24 -24 -26 -27 -27 -27 -26 -26 -25 -25 -25 -25 -25 -25 -25 -25 -25 -25 -26 -26 -25 -25 -25 -25 -25 -25 -25 -25
-17 -17 -18 -19 -20 -21 -22 -23 -23 -23 -23 -24 -24 -24 -24 -24 -24 -25 -27 -28 -28 -27 -27 -27 -26 -26 -25 -25 -25 -25 -26 -25 -25 -26 -26 -25 -25 -25 -25 -25 -25 -25 -25 -25
-17 -17 -18 -19 -20 -21 -22 -23 -23 -23 -24 -24 -24 -25 -25 -25 -25 -26 -27 -28 -28 -28 -28 -27 -27 -26 -26 -26 -26 -26 -26 -26 -26 -26 -26 -26 -26 -26 -25 -25 -25 -25 -26 -26
-17 -18 -19 -20 -21 -22 -23 -23 -24 -24 -24 -25 -25 -25 -26 -26 -26 -27 -28 -28 -28 -28 -28 -28 -28 -28 -27 -27 -27 -27 -27 -27 -26 -26 -26 -26 -26 -26 -26 -26 -26 -26 -26 -26
Height
5597 5589 5581 5579 5581 5586 5590 5592 5596 5600 5602 5607 5609 5614 5619 5623 5628 5632 5635 5639 5644 5648 5652 5658 5663 5667 5671 5674 5677 5680 5682 5685 5689 5691 5694 5696 5697 5699 5701 5703 5703 5704 5704 5705
5599 5591 5582 5579 5581 5585 5589 5592 5593 5596 5598 5601 5604 5609 5615 5617 5621 5625 5629 5634 5637 5641 5645 5648 5653 5657 5659 5662 5666 5670 5673 5676 5679 5682 5684 5685 5688 5688 5689 5690 5692 5693 5695 5694
5600 5591 5583 5580 5582 5584 5586 5590 5591 5592 5595 5597 5602 5606 5608 5611 5614 5617 5620 5624 5626 5631 5635 5639 5642 5646 5649 5654 5657 5660 5663 5665 5668 5670 5671 5673 5675 5678 5679 5681 5682 5682 5682 5683
5601 5592 5588 5585 5581 5582 5585 5586 5586 5586 5588 5592 5596 5600 5602 5604 5608 5611 5614 5617 5620 5622 5624 5628 5630 5633 5638 5643 5646 5649 5652 5655 5657 5658 5660 5664 5666 5668 5670 5671 5672 5673 5673 5672
5603 5596 5591 5584 5581 5580 5581 5582 5581 5581 5582 5585 5588 5591 5592 5592 5597 5601 5605 5608 5611 5614 5616 5618 5621 5624 5627 5632 5635 5639 5642 5645 5647 5650 5652 5654 5655 5657 5659 5660 5662 5663 5663 5663
5602 5597 5592 5587 5581 5578 5575 5576 5576 5577 5578 5579 5582 5582 5583 5585 5586 5591 5595 5600 5603 5606 5609 5612 5615 5618 5620 5622 5626 5628 5630 5634 5639 5640 5642 5643 5645 5646 5648 5649 5650 5651 5652 5652
5603 5597 5590 5585 5579 5576 5573 5576 5571 5571 5572 5573 5575 5576 5578 5579 5581 5584 5587 5591 5594 5597 5601 5604 5607 5609 5611 5613 5615 5616 5619 5623 5626 5627 5630 5632 5634 5636 5637 5638 5639 5640 5640 5641
5602 5597 5592 5584 5579 5573 5570 5567 5567 5567 5567 5567 5568 5569 5569 5572 5575 5578 5581 5583 5586 5588 5591 5594 5597 5600 5602 5605 5606 5608 5610 5612 5614 5617 5619 5621 5623 5624 5625 5626 5627 5628 5628 5629
5603 5597 5591 5586 5577 5570 5565 5561 5561 5560 5560 5561 5562 5563 5564 5566 5567 5570 5573 5576 5578 5580 5581 5585 5589 5592 5594 5596 5598 5600 5602 5604 5605 5607 5609 5610 5612 5613 5614 5616 5616 5617 5617 5618
5601 5596 5591 5584 5577 5570 5564 5559 5554 5552 5551 5552 5553 5556 5558 5560 5562 5564 5565 5568 5571 5573 5575 5576 5579 5582 5584 5586 5588 5590 5592 5594 5596 5597 5599 5601 5602 5603 5604 5605 5606 5606 5607 5608
5598 5594 5590 5584 5579 5572 5567 5559 5551 5546 5542 5541 5544 5546 5550 5554 5556 5558 5560 5561 5563 5565 5567 5569 5571 5573 5575 5577 5579 5580 5582 5584 5586 5588 5589 5591 5592 5593 5594 5595 5596 5596 5597 5597
5598 5592 5588 5584 5578 5573 5566 5559 5551 5542 5535 5531 5533 5537 5540 5545 5550 5552 5554 5556 5557 5559 5561 5561 5563 5565 5567 5568 5570 5571 5573 5575 5576 5578 5580 5581 5582 5583 5584 5584 5585 5586 5586 5586
5595 5590 5587 5582 5577 5572 5566 5559 5553 5544 5534 5526 5527 5530 5534 5539 5543 5546 5548 5549 5551 5552 5553 5553 5554 5555 5557 5559 5560 5562 5564 5565 5567 5568 5570 5571 5572 5573 5574 5574 5575 5575 5576 5576
5592 5588 5585 5580 5575 5569 5564 5558 5552 5546 5537 5527 5525 5527 5531 5536 5539 5542 5542 5544 5545 5545 5546 5546 5546 5547 5548 5550 5551 5552 5554 5555 5556 5558 5559 5560 5562 5563 5564 5564 5565 5566 5566 5566
5589 5585 5582 5577 5572 5566 5561 5556 5551 5545 5539 5530 5525 5527 5531 5534 5536 5537 5538 5538 5540 5538 5539 5540 5540 5540 5540 5540 5541 5543 5544 5545 5546 5548 5549 5550 5552 5553 5554 5555 5555 5555 5555 5555
5586 5582 5578 5573 5568 5563 5559 5553 5548 5543 5536 5531 5527 5528 5531 5533 5534 5534 5534 5535 5535 5534 5534 5535 5534 5534 5532 5533 5534 5534 5535 5536 5537 5538 5540 5541 5542 5543 5544 5544 5544 5544 5544 5544
5581 5577 5573 5568 5564 5560 5555 5549 5543 5536 5531 5528 5526 5527 5529 5529 5530 5530 5529 5529 5528 5528 5528 5527 5526 5525 5525 5525 5526 5526 5527 5527 5528 5529 5530 5531 5532 5532 5532 5532 5533 5533 5533 5533
5577 5572 5567 5563 5559 5555 5551 5546 5540 5535 5530 5528 5526 5525 5525 5525 5524 5524 5523 5523 5521 5520 5520 5520 5519 5518 5518 5518 5518 5518 5519 5519 5519 5520 5520 5521 5521 5521 5521 5521 5521 5521 5521 5521
5572 5567 5562 5559 5554 5549 5545 5542 5538 5534 5531 5527 5524 5521 5519 5519 5518 5517 5516 5515 5514 5513 5512 5511 5511 5510 5510 5509 5509 5509 5509 5509 5509 5509 5509 5509 5509 5509 5509 5509 5509 5509 5509 5509
5566 5561 5557 5553 5548 5544 5540 5536 5534 5531 5527 5523 5520 5516 5513 5510 5509 5507 5505 5504 5503 5503 5502 5501 5500 5500 5500 5500 5499 5499 5499 5499 5499 5498 5498 5498 5497 5497 5497 5497 5497 5498 5498 5498
5561 5556 5551 5546 5541 5537 5533 5531 5528 5524 5521 5517 5513 5509 5506 5502 5498 5495 5492 5490 5489 5489 5489 5488 5488 5488 5488 5488 5488 5488 5488 5488 5488 5487 5487 5487 5487 5487 5486 5486 5486 5486 5487 5487
5554 5549 5544 5539 5535 5530 5527 5524 5520 5516 5513 5509 5506 5502 5498 5493 5488 5484 5480 5478 5476 5475 5475 5475 5475 5475 5475 5475 5476 5476 5476 5476 5476 5476 5476 5476 5476 5476 5476 5476 5476 5476 5476 5476
5548 5543 5537 5532 5528 5524 5520 5515 5511 5507 5503 5500 5496 5491 5486 5482 5477 5472 5467 5463 5462 5461 5461 5461 5461 5461 5461 5462 5462 5462 5463 5463 5464 5465 5465 5466 5466 5466 5466 5466 5466 5466 5466 5467
5541 5535 5529 5525 5520 5515 5510 5506 5501 5498 5494 5489 5484 5480 5475 5470 5464 5459 5454 5450 5448 5447 5447 5446 5446 5448 5449 5449 5449 5450 5451 5452 5453 5454 5455 5456 5456 5457 5458 5458 5458 5459 5459 5459
5533 5527 5521 5516 5510 5505 5500 5496 5492 5487 5482 5476 5472 5468 5463 5458 5452 5444 5440 5437 5437 5435 5435 5434 5433 5434 5436 5437 5437 5438 5439 5440 5442 5444 5446 5447 5448 5449 5450 5450 5450 5450 5450 5450
5523 5518 5512 5507 5501 5495 5490 5486 5481 5475 5469 5464 5460 5455 5449 5443 5437 5431 5427 5425 5424 5424 5423 5423 5423 5422 5422 5423 5425 5426 5428 5430 5432 5434 5436 5438 5439 5440 5440 5441 5441 5441 5441 5441
5514 5508 5503 5497 5491 5485 5480 5474 5469 5464 5459 5452 5446 5441 5435 5430 5425 5419 5415 5413 5412 5412 5412 5412 5412 5413 5413 5413 5414 5416 5418 5420 5422 5424 5426 5427 5429 5430 5430 5430 5431 5430 5430 5429
Wind_Speed
44 40 26 4 17 26 25 23 22 20 29 32 28 27 26 25 24 29 34 37 38 41 46 56 53 50 43 43 44 45 45 48 47 45 46 46 46 47 48 49 48 48 49 48
46 43 27 1 8 18 24 28 34 23 24 28 27 26 26 27 24 25 31 35 38 41 41 41 44 48 49 50 47 47 48 47 46 47 47 46 48 49 49 49 49 49 50 48
44 40 32 6 4 13 14 18 27 28 30 31 28 26 28 29 29 31 30 34 37 38 41 42 44 45 47 47 46 48 49 48 47 47 44 44 45 47 46 47 47 47 45 45
42 40 29 25 12 13 16 18 18 19 28 31 34 31 33 38 35 32 32 34 34 35 38 39 39 41 41 42 42 45 45 45 43 42 41 41 42 42 42 40 38 39 39 38
39 38 36 30 21 14 19 18 13 14 17 21 28 32 31 34 36 40 37 35 36 36 36 37 37 36 38 39 36 38 43 44 43 42 42 41 40 40 40 40 40 40 40 39
37 35 31 30 19 15 16 19 20 16 14 18 24 25 26 23 34 39 38 36 37 38 37 34 35 37 38 38 38 42 43 42 43 43 40 38 39 39 39 39 39 40 40 39
32 34 33 34 28 16 11 10 16 17 18 18 20 21 21 27 23 26 29 33 35 37 39 34 34 34 36 36 36 37 39 42 41 38 36 35 37 40 41 42 43 42 42 41
30 32 29 33 32 24 20 14 18 20 19 18 18 18 18 21 25 27 26 27 28 33 38 39 35 32 33 34 35 36 36 36 33 29 29 31 35 37 37 40 42 42 40 41
27 29 32 32 32 30 26 22 18 20 24 29 21 20 17 18 21 26 29 31 31 32 28 28 28 29 31 33 36 35 33 28 27 32 35 36 37 36 37 36 36 38 40 41
27 28 30 30 31 33 33 30 25 22 23 23 29 27 24 20 20 22 25 27 29 30 30 31 33 33 30 29 31 31 31 32 31 31 31 32 32 33 34 36 36 36 36 34
26 27 28 30 30 32 36 36 34 24 22 26 25 30 29 25 23 21 20 18 21 23 23 27 28 28 27 27 28 30 31 30 30 31 33 34 34 34 34 34 34 34 34 35
23 26 28 30 30 32 34 38 39 37 34 21 22 27 28 27 26 24 20 17 17 20 21 23 23 28 25 24 25 26 29 30 31 31 32 32 33 33 33 34 33 34 35 35
24 27 27 28 30 30 32 37 38 38 32 25 16 21 25 22 21 20 22 22 20 19 20 21 23 23 26 27 28 29 30 30 30 31 32 32 33 33 33 33 33 33 34 34
25 27 28 30 31 32 32 33 36 35 31 25 12 17 20 18 16 16 14 18 17 23 18 19 20 22 25 27 29 29 31 29 30 30 30 31 31 31 31 31 31 32 33 34
23 25 27 28 30 32 33 34 35 33 32 18 17 12 17 15 13 13 16 20 19 18 18 20 23 20 20 22 26 29 30 30 30 30 30 30 31 31 30 31 32 32 32 32
24 25 26 29 30 30 30 31 31 31 28 24 9 8 13 14 13 12 15 18 20 16 18 23 24 24 22 24 25 27 27 27 28 28 28 29 30 32 35 36 35 35 34 34
27 28 28 29 30 29 28 27 25 22 22 17 5 12 16 19 19 20 22 22 24 25 26 28 27 23 24 26 28 30 29 28 28 29 29 30 32 33 33 34 35 36 36 37
30 30 30 31 31 29 27 24 22 19 16 14 11 10 15 21 26 29 27 28 26 22 23 22 23 24 24 24 25 27 29 29 28 29 30 31 32 32 34 34 35 36 36 36
31 33 34 34 33 30 26 25 22 20 17 16 17 19 22 23 26 26 27 30 30 27 27 25 29 28 27 26 24 24 24 25 27 28 30 32 33 34 36 37 37 37 36 36
33 35 37 35 33 31 28 26 24 22 20 18 18 20 23 26 30 34 36 37 35 34 31 33 30 31 32 29 32 30 30 29 28 29 31 32 32 32 32 33 35 37 36 35
34 37 39 37 35 33 31 29 26 24 22 22 22 22 24 28 30 34 38 39 38 38 41 39 37 39 38 37 34 32 32 31 30 30 29 30 31 31 31 30 30 31 32 33
36 39 40 39 37 35 33 31 29 27 25 25 25 24 26 29 35 38 39 41 40 38 40 37 38 38 38 38 38 36 37 36 34 34 33 31 31 31 31 31 32 32 32 31
37 41 42 42 41 39 36 34 31 30 29 29 29 29 29 31 36 40 41 39 39 37 39 42 42 35 37 37 36 37 36 34 33 31 29 28 26 25 24 23 22 21 20 20
40 44 46 45 43 41 38 36 35 34 33 33 32 33 32 33 38 42 42 37 34 33 36 34 36 35 33 32 33 33 32 30 32 30 26 25 25 24 23 22 21 20 20 21
42 46 48 47 46 43 41 40 40 38 37 36 37 36 33 35 39 44 41 33 30 30 30 32 32 36 39 38 37 31 31 31 31 25 25 26 23 21 21 21 21 22 23 24
45 48 50 48 46 45 43 42 42 42 41 41 40 37 36 37 40 43 41 34 29 29 29 28 27 28 33 32 34 33 31 24 23 25 26 24 23 24 25 26 26 27 28 29
48 50 51 49 48 46 46 46 46 46 45 43 41 40 38 38 39 42 34 29 28 29 29 30 29 26 25 26 26 27 29 29 29 29 29 29 29 29 29 28 29 30 31 32
Wind_Direction
19 15 356 318 216 213 222 236 245 248 219 225 226 225 223 222 226 232 230 229 231 230 230 239 248 248 245 245 248 247 251 254 257 259 258 259 261 265 266 268 270 272 274 275
19 20 6 31 219 216 220 228 240 250 219 221 229 233 228 227 226 230 234 233 232 234 235 234 237 240 245 249 250 251 249 248 250 253 256 257 258 260 263 266 268 270 271 273
19 22 20 344 278 237 223 228 246 254 239 245 238 239 236 228 228 229 228 235 237 235 233 233 234 238 242 244 245 244 247 249 250 251 255 260 261 264 267 268 271 270 269 270
20 22 20 1 317 235 232 247 271 251 238 237 240 243 249 248 238 238 238 232 234 239 241 240 240 238 238 241 242 244 245 248 250 252 255 259 262 265 266 268 270 269 267 265
20 22 21 11 356 298 260 257 267 259 228 232 239 244 245 241 239 240 236 236 237 235 236 238 241 244 244 242 246 246 246 247 251 255 257 259 260 262 263 264 264 265 266 267
18 19 20 12 354 341 298 271 267 266 250 238 235 244 252 252 233 235 237 236 238 234 236 239 246 250 251 249 247 247 251 253 256 257 260 262 262 262 262 263 264 266 268 269
18 17 16 11 5 360 326 291 279 273 266 260 255 250 250 252 243 234 238 235 240 242 242 240 243 246 249 252 255 257 259 259 261 262 255 256 258 258 260 262 263 263 264 266
14 18 12 16 5 350 334 297 263 265 263 261 255 249 250 245 239 242 242 241 247 253 249 246 246 246 248 251 255 257 258 258 259 258 257 256 256 254 254 256 257 260 262 263
8 16 17 14 4 356 344 322 300 282 270 262 251 242 237 239 233 237 241 244 247 252 239 236 244 247 249 251 253 256 255 252 251 252 253 255 253 254 257 259 260 261 263 264
1 6 15 18 13 3 355 342 314 293 276 263 258 251 245 244 237 238 235 243 251 253 255 254 259 260 257 256 255 256 254 251 251 253 255 257 255 254 255 257 258 261 264 265
354 358 8 16 20 19 14 357 348 335 293 271 253 251 245 240 249 251 251 251 253 258 260 258 253 254 254 253 252 253 253 250 250 250 249 249 250 251 254 256 259 261 262 264
347 351 354 6 17 18 17 13 7 349 343 283 255 247 245 238 242 247 248 256 261 257 258 257 256 251 253 254 252 250 250 249 249 250 251 252 252 253 254 257 259 261 263 266
343 342 346 356 2 9 15 16 14 16 0 339 264 246 240 235 237 247 250 256 264 269 267 265 258 255 256 256 254 253 251 250 250 250 251 252 253 255 256 257 258 261 264 266
338 337 339 342 347 355 4 15 19 18 26 345 295 246 230 232 244 248 263 252 253 260 263 267 265 259 257 255 252 252 252 250 251 249 248 249 251 253 256 258 261 265 267 269
335 333 335 337 342 345 352 0 11 20 25 1 320 248 229 232 237 247 259 254 245 259 265 261 273 268 267 263 258 251 247 246 247 248 250 252 253 254 255 260 265 268 268 268
337 334 333 333 335 342 346 351 3 16 17 20 341 235 216 226 236 252 267 257 261 243 255 256 273 282 273 264 259 258 255 254 252 250 251 253 256 258 259 262 264 265 266 268
339 337 335 332 334 340 344 347 2 3 358 359 354 236 244 229 242 254 269 277 271 262 257 264 271 273 268 261 257 254 252 252 252 253 255 256 258 260 263 265 265 266 267 268
338 337 336 336 336 340 342 342 346 351 343 318 306 283 263 258 257 268 270 268 266 266 264 265 271 269 263 262 262 260 257 253 252 257 260 261 262 264 264 265 266 266 267 267
337 337 337 336 337 338 338 338 335 337 334 323 307 280 265 267 260 266 265 266 262 263 265 261 262 267 258 255 257 258 259 261 263 264 265 267 267 267 265 265 265 265 265 266
334 334 335 335 336 334 333 333 333 331 324 314 303 297 292 284 275 269 269 269 266 264 267 262 264 262 258 262 268 268 263 265 271 271 269 267 267 268 267 266 265 265 266 266
330 331 331 333 333 330 328 330 330 328 322 313 302 297 295 294 289 280 274 273 268 264 266 266 263 262 265 265 266 264 267 270 271 275 274 269 268 267 267 267 266 266 266 267
326 327 327 330 328 326 325 324 327 325 323 314 310 302 298 293 291 289 282 274 273 270 263 264 263 264 264 264 262 265 271 273 270 269 270 268 268 267 268 268 266 265 265 265
322 322 324 326 326 325 323 321 323 322 323 319 311 307 302 298 295 293 289 281 274 270 269 255 261 273 265 261 266 266 268 267 265 265 264 263 262 264 264 263 263 263 264 265
319 320 321 324 323 322 320 320 320 324 324 318 311 311 307 303 297 295 295 288 280 272 271 270 260 261 264 266 264 262 261 261 262 258 254 256 256 256 257 259 261 263 266 270
317 317 317 319 320 320 318 320 322 323 321 317 316 315 310 308 299 295 295 289 281 275 275 277 270 258 256 260 259 254 257 257 256 252 255 253 254 254 258 261 265 269 272 274
315 314 315 318 318 318 318 320 321 321 320 320 320 317 313 306 298 296 296 288 276 274 271 274 273 271 255 257 260 248 250 248 246 247 249 249 255 261 265 267 269 273 276 279
313 313 315 316 317 318 319 320 320 321 322 321 319 318 311 302 297 296 299 288 274 266 268 267 268 268 267 258 251 251 252 247 243 244 247 252 260 266 267 269 275 278 281 282